• Em Portugal
  • Lista de países
  • Para 7 dias
  • Temperatura da água
  • Mapas de satélite
  • Mapa do tempo
  • Widgets de tempo
  • user-avatar
    Iniciar Sessão

    Previsão horária em Setserleg

    Hoje, 22 Outubro, Domingo

    Tempo Temperatura Precipitação Vento Pressão Humidade
    00:00 +1°C° 0 mm 1 m/s 615 mmHg 54%
    01:00 +1°C° 0 mm 1 m/s 614 mmHg 54%
    02:00 +1°C° 0 mm 1 m/s 614 mmHg 53%
    03:00 +1°C° 0 mm 1 m/s 614 mmHg 53%
    04:00 +1°C° 0 mm 1 m/s 614 mmHg 53%
    05:00 +1°C° 0 mm 1 m/s 614 mmHg 52%
    06:00 +1°C° 0 mm 1 m/s 614 mmHg 52%
    07:00 -1°C° 0 mm 2 m/s 614 mmHg 51%
    08:00 +2°C° 0 mm 2 m/s 615 mmHg 47%
    09:00 +3°C° 0 mm 2 m/s 615 mmHg 43%
    10:00 +5°C° 0 mm 1 m/s 615 mmHg 39%
    11:00 +7°C° 0 mm 1 m/s 615 mmHg 37%
    12:00 +8°C° 0 mm 1 m/s 615 mmHg 35%
    13:00 +9°C° 0 mm 1 m/s 615 mmHg 33%
    14:00 +8°C° 0 mm 1 m/s 614 mmHg 37%
    15:00 +7°C° 0 mm 1 m/s 613 mmHg 42%
    16:00 +6°C° 0 mm 1 m/s 613 mmHg 46%
    17:00 +5°C° 0 mm 1 m/s 612 mmHg 48%
    18:00 +4°C° 0 mm 1 m/s 612 mmHg 49%
    19:00 +2°C° 0 mm 2 m/s 612 mmHg 50%
    20:00 +2°C° 0 mm 2 m/s 612 mmHg 50%
    21:00 +1°C° 0 mm 2 m/s 612 mmHg 51%
    22:00 +1°C° 0 mm 2 m/s 612 mmHg 51%
    23:00 +1°C° 0 mm 2 m/s 612 mmHg 51%

    Amanhã, 23 Outubro, Segunda-feira

    Tempo Temperatura Precipitação Vento Pressão Humidade
    00:00 +1°C° 0 mm 2 m/s 612 mmHg 50%
    01:00 +1°C° 0 mm 2 m/s 612 mmHg 50%
    02:00 +1°C° 0 mm 2 m/s 612 mmHg 49%
    03:00 +1°C° 0 mm 2 m/s 611 mmHg 49%
    04:00 +1°C° 0 mm 2 m/s 611 mmHg 49%
    05:00 +1°C° 0 mm 2 m/s 611 mmHg 48%
    06:00 +1°C° 0 mm 2 m/s 612 mmHg 48%
    07:00 +1°C° 0 mm 2 m/s 612 mmHg 48%
    08:00 +2°C° 0 mm 2 m/s 612 mmHg 45%
    09:00 +4°C° 0 mm 2 m/s 613 mmHg 42%
    10:00 +5°C° 0 mm 2 m/s 613 mmHg 39%
    11:00 +7°C° 0 mm 2 m/s 613 mmHg 36%
    12:00 +9°C° 0 mm 1 m/s 613 mmHg 34%
    13:00 +10°C° 0 mm 1 m/s 613 mmHg 31%
    14:00 +9°C° 0 mm 1 m/s 613 mmHg 35%
    15:00 +8°C° 0 mm 1 m/s 613 mmHg 39%
    16:00 +7°C° 0 mm 1 m/s 612 mmHg 43%
    17:00 +6°C° 0 mm 1 m/s 612 mmHg 44%
    18:00 +5°C° 0 mm 1 m/s 612 mmHg 46%
    19:00 +4°C° 0 mm 1 m/s 612 mmHg 47%
    20:00 +3°C° 0 mm 1 m/s 612 mmHg 47%
    21:00 +3°C° 0 mm 1 m/s 613 mmHg 48%
    22:00 +3°C° 0 mm 1 m/s 613 mmHg 48%
    23:00 +3°C° 0 mm 1 m/s 613 mmHg 48%

    Depois de amanhã, 24 Outubro, Terça-feira

    Tempo Temperatura Precipitação Vento Pressão Humidade
    00:00 +3°C° 0 mm 1 m/s 613 mmHg 48%
    01:00 +2°C° 0 mm 1 m/s 613 mmHg 48%
    02:00 +2°C° 0 mm 1 m/s 613 mmHg 48%
    03:00 +2°C° 0 mm 1 m/s 613 mmHg 48%
    04:00 +2°C° 0 mm 1 m/s 613 mmHg 48%
    05:00 +2°C° 0 mm 1 m/s 613 mmHg 48%
    06:00 +2°C° 0 mm 1 m/s 613 mmHg 48%
    07:00 +2°C° 0 mm 1 m/s 613 mmHg 48%
    08:00 +3°C° 0 mm 1 m/s 614 mmHg 45%
    09:00 +4°C° 0 mm 1 m/s 614 mmHg 42%
    10:00 +6°C° 0 mm 1 m/s 615 mmHg 38%
    11:00 +7°C° 0 mm 1 m/s 615 mmHg 37%
    12:00 +7°C° 0 mm 1 m/s 615 mmHg 37%
    13:00 +8°C° 0 mm 1 m/s 614 mmHg 36%
    14:00 +7°C° 0 mm 1 m/s 614 mmHg 42%
    15:00 +6°C° 0 mm 1 m/s 613 mmHg 48%
    16:00 +6°C° 0 mm 1 m/s 613 mmHg 53%
    17:00 +4°C° 0 mm 1 m/s 613 mmHg 56%
    18:00 +3°C° 0 mm 1 m/s 613 mmHg 58%
    19:00 +2°C° 0 mm 1 m/s 613 mmHg 61%
    20:00 +2°C° 0 mm 1 m/s 613 mmHg 60%
    21:00 +2°C° 0 mm 1 m/s 613 mmHg 59%
    22:00 +2°C° 0 mm 1 m/s 613 mmHg 58%
    23:00 +2°C° 0 mm 1 m/s 613 mmHg 57%

    25 Outubro, Quarta-feira

    Tempo Temperatura Precipitação Vento Pressão Humidade
    00:00 +2°C° 0 mm 1 m/s 613 mmHg 56%
    01:00 +2°C° 0 mm 1 m/s 612 mmHg 55%
    02:00 +2°C° 0 mm 1 m/s 612 mmHg 53%
    03:00 +1°C° 0 mm 2 m/s 612 mmHg 52%
    04:00 +1°C° 0 mm 2 m/s 612 mmHg 51%
    05:00 +1°C° 0 mm 2 m/s 612 mmHg 50%
    06:00 +1°C° 0 mm 2 m/s 612 mmHg 49%
    07:00 +1°C° 0 mm 2 m/s 612 mmHg 48%
    08:00 +2°C° 0 mm 2 m/s 613 mmHg 44%
    09:00 +4°C° 0 mm 2 m/s 613 mmHg 41%
    10:00 +5°C° 0 mm 2 m/s 613 mmHg 37%
    11:00 +6°C° 0 mm 2 m/s 613 mmHg 35%
    12:00 +7°C° 0 mm 3 m/s 613 mmHg 33%
    13:00 +7°C° 0 mm 4 m/s 613 mmHg 30%
    14:00 +7°C° 0 mm 3 m/s 612 mmHg 35%
    15:00 +6°C° 0 mm 2 m/s 612 mmHg 39%
    16:00 +5°C° 0 mm 2 m/s 611 mmHg 44%
    17:00 +4°C° 0 mm 2 m/s 611 mmHg 45%
    18:00 +3°C° 0 mm 2 m/s 611 mmHg 46%
    19:00 +2°C° 0 mm 2 m/s 611 mmHg 47%
    20:00 +2°C° 0 mm 2 m/s 610 mmHg 47%
    21:00 +2°C° 0 mm 2 m/s 610 mmHg 47%
    22:00 +1°C° 0 mm 2 m/s 610 mmHg 47%
    23:00 +1°C° 0 mm 2 m/s 610 mmHg 47%

    26 Outubro, Quinta-feira

    Tempo Temperatura Precipitação Vento Pressão Humidade
    00:00 +1°C° 0 mm 2 m/s 610 mmHg 46%
    01:00 +1°C° 0 mm 2 m/s 609 mmHg 46%
    02:00 +1°C° 0 mm 2 m/s 609 mmHg 45%
    03:00 +1°C° 0 mm 2 m/s 609 mmHg 44%
    04:00 +1°C° 0 mm 2 m/s 609 mmHg 43%
    05:00 +1°C° 0 mm 2 m/s 609 mmHg 42%
    06:00 0°C° 0 mm 3 m/s 609 mmHg 41%
    07:00 0°C° 0 mm 3 m/s 609 mmHg 41%
    08:00 +2°C° 0 mm 3 m/s 609 mmHg 38%
    09:00 +3°C° 0 mm 4 m/s 609 mmHg 35%
    10:00 +5°C° 0 mm 4 m/s 609 mmHg 33%
    11:00 +5°C° 0 mm 6 m/s 609 mmHg 32%
    12:00 +6°C° 0 mm 8 m/s 609 mmHg 32%
    13:00 +6°C° 0 mm 9 m/s 608 mmHg 32%
    14:00 +5°C° 0 mm 9 m/s 608 mmHg 36%
    15:00 +4°C° 0 mm 8 m/s 608 mmHg 40%
    16:00 +3°C° 0 mm 7 m/s 607 mmHg 45%
    17:00 0°C° 0 mm 7 m/s 608 mmHg 47%
    18:00 -1°C° 0 mm 6 m/s 608 mmHg 49%
    19:00 -2°C° 0 mm 5 m/s 609 mmHg 51%
    20:00 -4°C° 0 mm 6 m/s 609 mmHg 47%
    21:00 -7°C° 0 mm 8 m/s 610 mmHg 44%
    22:00 -9°C° 0 mm 9 m/s 611 mmHg 40%
    23:00 -10°C° 0 mm 9 m/s 611 mmHg 39%

    27 Outubro, Sexta-feira

    Tempo Temperatura Precipitação Vento Pressão Humidade
    00:00 -11°C° 0 mm 9 m/s 612 mmHg 37%
    01:00 -11°C° 0 mm 9 m/s 613 mmHg 36%
    02:00 -11°C° 0 mm 8 m/s 613 mmHg 36%
    03:00 -12°C° 0 mm 8 m/s 613 mmHg 36%
    04:00 -12°C° 0 mm 7 m/s 614 mmHg 36%
    05:00 -12°C° 0 mm 7 m/s 614 mmHg 37%
    06:00 -11°C° 0 mm 6 m/s 615 mmHg 37%
    07:00 -12°C° 0 mm 6 m/s 615 mmHg 38%
    08:00 -11°C° 0 mm 6 m/s 615 mmHg 36%
    09:00 -11°C° 0 mm 6 m/s 616 mmHg 35%
    10:00 -10°C° 0 mm 6 m/s 616 mmHg 33%
    11:00 -10°C° 0 mm 6 m/s 616 mmHg 31%
    12:00 -9°C° 0 mm 6 m/s 616 mmHg 29%
    13:00 -8°C° 0 mm 6 m/s 616 mmHg 27%
    14:00 -8°C° 0 mm 6 m/s 616 mmHg 28%
    15:00 -8°C° 0 mm 5 m/s 616 mmHg 29%
    16:00 -8°C° 0 mm 5 m/s 616 mmHg 30%
    17:00 -8°C° 0 mm 4 m/s 617 mmHg 33%
    18:00 -9°C° 0 mm 4 m/s 617 mmHg 36%
    19:00 -8°C° 0 mm 3 m/s 618 mmHg 38%
    20:00 -8°C° 0 mm 3 m/s 618 mmHg 40%
    21:00 -8°C° 0 mm 3 m/s 618 mmHg 42%
    22:00 -8°C° 0 mm 2 m/s 618 mmHg 43%
    23:00 -8°C° 0 mm 2 m/s 618 mmHg 44%
    Mostrar mais